Regional Weather Roundup
Issued by NWS Midland/Odessa, TX

Skip options and go directly to product.
Home | Oldest Version | Previous Version | Current Version | All | Graphics & Text | Save Text | Print | Product List | Glossary On

Skip product version selection by date and time.   
655
ASUS44 KMAF 011010
RWRMAF
MIDLAND AREA WEATHER ROUNDUP
NATIONAL WEATHER SERVICE MIDLAND TX
500 AM CDT TUE SEP 01 2015

...IN SOUTHWEST TEXAS AND SOUTHEAST NEW MEXICO...

CITY           SKY/WX    TMP DP  RH WIND       PRES   REMARKS
ALPINE         CLEAR     62  51  67 SW6       30.15R
ANDREWS        FAIR      68  56  64 S7        30.04R
ARTESIA        CLEAR     68  50  52 CALM      30.02S
BIG SPRING     CLEAR     70  56  61 SE12      30.05R
CARLSBAD       CLEAR     73  52  47 SE5       29.99S
DRYDEN           N/A     73  62  68 VRB5      29.99S
FORT STOCKTON  CLEAR     72  60  66 SE14      30.00S
GUAD PASS      CLEAR     73  39  29 W8        30.16S
HOBBS            N/A     66  54  63 S8        30.06S
MARFA          CLEAR     54  45  71 N7        30.13S
MIDLAND AIRPK  CLEAR     75  59  58 S10       30.03R
MIDLAND INTL   CLEAR     73  57  57 S10       30.03R
ODESSA         CLEAR     73  55  53 S13       30.03S
PECOS          CLEAR     73  55  51 E9        29.97S
PRESIDIO       NOT AVBL
SEMINOLE       CLEAR     66  54  66 S6        30.05S
SNYDER         CLEAR     72  56  58 SE10      30.03S
WINK           CLEAR     73  55  53 SE15      29.98F
$$
...OTHER STATIONS IN TEXAS...

CITY           SKY/WX    TMP DP  RH WIND       PRES   REMARKS
ABILENE        CLEAR     74  64  71 S10       30.01F
AMARILLO       PTCLDY    67  54  63 S10       30.06R
AUSTIN         MOCLDY    70  70 100 CALM      29.99F
BROWNSVILLE    MOCLDY    74  71  91 W6        29.93R
CORPUS CHRISTI MOCLDY    73  70  90 SE7       29.95S
DALLAS FTW     PTCLDY    78  68  71 S10       30.01F
DEL RIO        CLEAR     74  68  81 E10       29.96F
EL PASO        FAIR      77  46  33 CALM      30.03S
HOUSTON INT    PTCLDY    73  71  93 CALM      29.99F
LUBBOCK        PTCLDY    65  56  72 SE7       30.04S
SAN ANGELO     CLEAR     74  65  73 S5        30.02R
SAN ANTONIO    PTCLDY    75  71  87 E5        29.99F
WACO           CLEAR     73  68  84 SE7       30.02S
WICHITA FALLS  NOT AVBL
$$
...OTHER LOCATIONS IN NEW MEXICO...

CITY           SKY/WX    TMP DP  RH WIND       PRES   REMARKS
ALAMAGORDO     CLEAR     72  46  40 NE6       30.06R
ALBUQUERQUE    CLOUDY    70  48  45 SE5       30.15F
CANNON AFB     PTCLDY    67  52  59 S2        30.08R
CLOVIS         PTCLDY    63  52  67 SW7       30.09S
HOLLOMAN AFB   CLEAR     69  50  50 NE6       30.04R
ROSWELL        CLEAR     68  50  52 SW6       30.02S
RUIDOSO        PTCLDY    57  46  67 MISG      30.26F
SANTA FE       PTCLDY    62  51  67 CALM      30.21R
TRUTH OR CONSE FAIR      71  51  49 NW15      30.11S
TUCUMCARI      PTCLDY    74  47  38 SW12      30.03S
$$

USA.gov is the U.S. government's official web portal to all federal, state and local government web resources and services.